Temp
24 28 29 29 27 30 26 28 23 33 33 37 39 37 39 42 45 47 51 52 53 54 54 56 57 57 59 62 64 64 69 72 71 72 72 73 73 73 74 74 73 73 71 72
22 30 31 28 31 33 33 35 34 35 34 43 45 45 43 42 42 44 47 51 52 53 54 54 56 57 58 59 61 62 62 67 72 71 72 71 72 71 72 72 72 72 69 70
17 28 27 21 32 34 35 38 36 30 34 40 42 44 43 43 44 45 45 48 51 52 54 54 56 57 57 58 59 59 60 62 66 70 70 71 72 71 70 70 69 68 67 68
18 23 12 34 41 40 37 39 37 35 36 40 43 48 49 48 46 48 47 46 49 51 53 56 56 57 57 58 57 57 58 61 64 67 70 71 71 70 69 68 66 65 65 66
17 19 27 33 35 33 34 34 37 33 36 38 44 49 47 53 52 53 50 51 49 50 52 55 54 56 56 56 56 56 55 55 57 63 68 70 69 69 69 65 64 65 65 64
20 16 14 32 39 44 43 29 40 37 36 37 42 36 41 52 54 55 52 52 52 52 50 51 51 53 54 53 53 54 53 54 55 56 58 67 68 66 68 65 63 63 62 63
19 18 27 38 41 45 27 29 40 40 38 38 39 43 48 51 52 54 55 55 53 53 52 50 51 52 50 51 50 53 56 54 55 54 53 53 63 63 64 63 61 59 57 57
23 19 17 41 41 31 37 42 42 41 40 41 44 47 47 48 50 51 52 55 56 54 51 53 52 50 48 49 51 52 53 54 54 53 52 51 50 52 56 56 54 50 47 42
26 27 39 41 40 45 45 43 44 43 41 45 45 45 46 46 48 49 50 50 53 54 54 56 53 52 48 49 51 50 51 52 53 53 51 50 49 48 47 48 48 44 45 42
30 35 38 41 44 45 46 45 45 44 41 43 42 44 44 45 46 46 48 47 49 50 50 50 52 54 54 50 52 50 48 50 53 52 48 50 48 48 46 42 40 39 39 38
32 36 39 42 44 45 45 46 43 44 44 43 42 42 42 42 43 44 44 46 47 47 46 47 49 50 51 51 50 50 50 48 49 50 49 47 43 41 45 43 41 40 38 38
30 40 38 39 44 45 43 43 41 41 41 42 41 40 41 40 41 42 41 43 43 43 43 44 45 46 48 48 48 48 49 50 48 48 48 47 43 39 37 36 38 38 38 37
37 43 41 41 42 42 41 40 40 40 40 38 40 39 39 38 39 38 39 39 39 39 40 41 42 43 45 44 45 45 45 47 49 46 49 46 42 38 39 36 36 36 36 36
43 40 38 37 36 39 39 39 39 40 39 38 38 38 37 36 37 37 37 38 38 38 38 39 38 38 40 41 42 42 43 37 44 45 45 45 47 42 39 38 37 35 35 37
40 39 37 36 36 36 37 38 37 36 36 36 37 36 36 36 36 36 38 38 37 35 34 34 34 35 38 38 38 38 39 39 40 43 44 42 42 42 42 41 40 37 35 34
36 36 35 34 35 36 36 37 36 35 34 34 35 35 35 35 35 36 37 37 33 33 35 33 33 34 35 38 37 37 38 36 36 40 41 43 42 40 39 39 39 39 38 36
33 32 33 33 33 34 34 35 34 33 33 34 34 34 35 35 34 34 35 36 36 34 36 35 33 36 36 38 38 36 36 37 36 38 39 41 43 42 41 40 39 39 39 36
36 36 36 35 33 32 33 34 34 33 32 33 34 33 32 31 30 31 32 33 32 32 35 37 38 37 37 38 38 38 38 36 37 37 39 39 41 44 44 42 41 39 38 35
38 36 36 36 35 34 33 33 33 33 32 32 30 30 31 32 32 32 32 31 31 31 35 38 35 35 37 37 36 38 36 35 36 36 37 38 39 43 44 43 41 40 38 35
37 37 36 35 36 35 33 34 33 32 32 32 30 30 29 30 30 30 31 30 32 35 37 37 36 36 36 36 34 35 35 34 34 35 35 36 38 39 42 41 42 39 37 36
36 35 34 34 34 35 33 33 32 32 32 31 30 29 28 29 29 30 29 28 33 35 36 34 35 35 35 36 36 34 33 33 33 34 34 34 35 36 38 40 41 38 36 36
33 31 32 33 33 33 33 33 32 31 32 31 30 30 29 29 30 30 32 30 34 34 34 34 35 34 34 33 34 33 33 32 33 33 34 34 34 34 35 36 37 36 36 35
31 29 29 28 30 32 32 31 26 29 31 31 31 31 30 30 30 29 28 33 34 34 33 33 34 33 33 34 33 33 33 32 32 33 33 34 34 35 35 36 36 36 36 36
28 27 27 30 29 29 29 30 27 30 32 32 32 32 31 31 32 34 34 33 32 32 32 33 33 33 33 33 33 32 32 32 32 33 33 33 34 35 36 35 36 36 37 36
24 25 30 28 27 29 28 28 28 30 31 32 32 32 31 34 31 31 32 32 32 32 33 34 33 33 33 33 33 32 32 32 32 32 32 32 33 34 35 36 36 36 36 36
28 28 27 25 25 27 27 27 26 27 28 29 31 33 32 33 32 32 32 32 32 33 33 33 33 33 32 33 32 32 32 32 32 32 32 33 33 34 35 36 36 36 35 35
24 23 23 24 25 25 26 24 24 24 26 26 26 30 33 32 32 31 31 32 32 33 33 33 33 33 32 32 32 33 33 33 32 33 33 33 33 34 34 35 35 35 35 35
MSLP
1019.69 1019.04 1018.20 1016.74 1015.43 1014.15 1013.99 1012.80 1012.09 1008.91 1008.19 1006.95 1006.23 1006.25 1005.44 1004.88 1003.66 1002.67 1001.87 1001.60 1000.49 1000.34 999.96 999.23 998.91 998.65 998.17 997.79 997.57 997.65 997.24 997.03 997.03 997.42 998.06 998.58 999.09 999.54 1000.10 1000.69 1001.24 1001.94 1002.87 1003.57
1019.13 1018.31 1017.01 1015.40 1014.35 1013.06 1012.26 1011.33 1010.12 1009.40 1008.21 1007.48 1006.13 1005.81 1005.50 1004.63 1004.22 1003.17 1002.83 1002.18 1001.31 1001.03 1000.75 1000.09 999.69 999.30 998.51 997.93 997.57 997.54 997.34 996.81 996.79 997.15 997.61 997.93 998.28 998.80 999.35 999.74 1000.34 1001.07 1001.81 1002.58
1018.39 1017.82 1016.41 1014.18 1011.98 1011.75 1011.27 1010.72 1010.23 1009.38 1008.91 1007.73 1005.87 1004.95 1004.55 1004.15 1003.70 1003.16 1003.40 1002.46 1001.58 1001.30 1000.82 1000.61 1000.39 999.97 999.30 998.63 998.05 997.60 997.24 997.09 996.81 996.81 996.87 997.18 997.58 998.17 998.54 998.97 999.83 1000.34 1001.13 1001.89
1018.12 1017.56 1015.44 1012.12 1011.35 1010.77 1010.71 1010.34 1010.38 1009.80 1009.03 1008.09 1006.49 1004.89 1004.40 1004.16 1003.34 1002.89 1002.75 1002.65 1002.02 1001.39 1000.89 1000.98 1000.89 1000.25 999.80 999.32 998.87 998.27 997.77 997.24 996.83 996.64 996.38 996.71 997.07 997.33 998.00 998.48 999.22 999.81 1000.54 1001.18
1017.81 1016.45 1013.97 1011.55 1011.20 1010.94 1010.42 1010.19 1010.54 1010.23 1009.27 1008.02 1006.66 1005.19 1004.33 1003.46 1003.25 1002.72 1003.02 1002.49 1002.21 1001.65 1001.47 1001.50 1000.89 1000.45 999.97 999.58 999.50 998.97 998.34 997.74 997.29 996.59 996.01 996.14 996.34 996.62 997.29 998.12 998.84 999.39 1000.09 1000.60
1017.62 1016.16 1013.80 1011.41 1010.99 1010.33 1009.75 1009.44 1010.03 1010.21 1009.36 1008.24 1006.80 1005.26 1004.58 1003.72 1002.87 1003.15 1002.74 1002.55 1002.48 1002.62 1002.06 1001.51 1001.18 1000.67 1000.54 1000.34 1000.22 999.94 999.37 998.41 997.79 997.16 996.46 995.65 995.83 996.32 996.98 997.70 998.32 999.08 999.71 999.92
1016.95 1015.83 1013.30 1011.61 1010.99 1009.96 1009.76 1010.44 1009.99 1010.00 1009.58 1008.64 1007.65 1007.09 1006.09 1005.01 1004.17 1003.64 1003.41 1002.88 1003.14 1003.24 1002.34 1001.93 1001.60 1001.69 1001.61 1001.29 1001.01 1001.03 1000.24 998.68 998.03 997.24 996.76 996.56 995.83 996.05 996.59 997.24 997.92 998.60 999.19 999.67
1015.82 1014.80 1013.01 1011.70 1011.15 1011.15 1011.19 1010.40 1010.08 1009.86 1009.73 1009.00 1008.30 1007.27 1006.79 1006.23 1005.28 1004.73 1004.30 1003.63 1003.45 1003.16 1002.96 1002.37 1002.34 1002.40 1002.55 1002.16 1002.11 1001.45 1000.92 999.32 998.87 998.18 997.84 997.48 997.25 996.56 996.52 997.07 997.97 998.74 999.48 1000.15
1015.29 1013.76 1012.29 1011.87 1011.65 1011.15 1010.84 1010.36 1009.56 1009.40 1009.68 1009.36 1008.61 1007.79 1006.95 1006.47 1006.26 1005.65 1005.29 1004.97 1004.45 1003.71 1003.00 1002.85 1003.40 1003.11 1003.07 1002.90 1002.20 1001.76 1000.99 1000.02 999.57 998.77 998.60 998.46 998.32 997.87 997.60 997.68 998.04 998.98 999.87 1000.72
1014.45 1013.14 1012.43 1011.64 1011.03 1010.82 1010.76 1010.30 1009.77 1009.43 1009.55 1009.47 1008.72 1008.33 1007.89 1007.27 1006.73 1006.61 1006.37 1005.87 1005.23 1004.51 1003.92 1003.77 1003.54 1003.22 1002.99 1003.14 1002.56 1001.87 1001.39 1000.63 999.96 999.68 999.81 999.18 999.27 999.15 999.03 998.95 999.06 999.51 1000.27 1000.96
1013.28 1012.72 1012.07 1011.38 1010.95 1010.72 1010.61 1010.49 1010.39 1010.24 1009.98 1009.67 1009.21 1008.72 1008.15 1007.51 1007.28 1007.14 1006.73 1006.28 1006.08 1005.65 1005.43 1005.15 1004.96 1004.55 1004.05 1003.55 1002.95 1002.54 1001.96 1001.13 1000.47 1000.15 1000.13 1000.14 1000.20 1000.32 1000.06 1000.03 999.77 1000.03 1000.56 1001.20
1011.85 1011.87 1011.97 1011.37 1010.98 1010.87 1010.63 1010.50 1010.60 1010.50 1010.22 1010.12 1009.96 1009.80 1009.51 1008.81 1008.49 1007.99 1007.30 1007.12 1006.77 1006.52 1006.29 1005.96 1005.44 1005.00 1004.44 1003.95 1003.61 1003.00 1002.36 1001.35 1001.01 1000.84 1000.37 1000.45 1000.57 1000.37 1000.44 1000.42 1000.55 1000.48 1000.77 1001.03
1011.50 1011.64 1011.82 1011.42 1011.09 1011.09 1010.95 1011.16 1011.01 1010.83 1010.68 1010.61 1010.44 1010.36 1010.30 1009.86 1009.29 1008.73 1008.11 1007.87 1007.60 1007.24 1007.07 1006.50 1005.86 1005.27 1004.77 1004.48 1003.96 1002.98 1002.54 1002.07 1001.37 1001.03 1000.72 1000.96 1000.98 1001.06 1001.17 1001.32 1001.32 1001.14 1001.28 1001.52
1011.46 1011.70 1011.61 1011.80 1011.74 1011.75 1011.69 1011.51 1011.38 1011.22 1011.14 1011.11 1010.93 1010.73 1010.60 1010.35 1009.81 1009.27 1008.74 1008.35 1008.05 1007.92 1007.22 1006.63 1006.19 1005.36 1005.13 1004.82 1004.14 1003.37 1003.14 1002.52 1001.78 1001.47 1001.27 1001.11 1001.34 1000.91 1001.01 1001.35 1001.45 1001.73 1001.71 1001.77
1011.38 1011.94 1012.05 1012.14 1012.22 1012.21 1012.17 1011.78 1011.42 1011.22 1011.27 1011.18 1011.17 1011.00 1010.72 1010.31 1009.97 1009.54 1009.03 1008.62 1008.24 1007.68 1007.15 1006.97 1006.38 1005.49 1005.13 1005.04 1004.57 1004.19 1003.49 1002.56 1002.05 1001.49 1001.06 1001.10 1001.19 1001.14 1000.66 1000.77 1001.34 1001.51 1001.89 1002.41
1011.67 1011.92 1012.05 1012.16 1012.17 1012.13 1012.01 1011.79 1011.48 1011.27 1011.53 1011.46 1011.20 1010.99 1010.74 1010.37 1009.99 1009.71 1009.24 1008.83 1008.43 1007.70 1007.23 1006.95 1006.50 1005.51 1004.88 1004.22 1003.62 1003.36 1003.20 1002.91 1002.23 1001.79 1000.93 1000.67 1000.78 1000.65 1000.69 1000.68 1000.61 1001.31 1001.59 1001.75
1011.66 1011.79 1011.97 1012.05 1012.12 1012.05 1011.97 1011.85 1011.83 1011.84 1011.72 1011.44 1011.17 1010.86 1010.38 1009.96 1009.53 1008.91 1008.54 1008.47 1008.23 1007.69 1007.08 1006.41 1005.49 1004.83 1004.44 1004.01 1003.58 1003.40 1003.05 1002.63 1002.41 1001.90 1001.02 1000.57 1000.57 1000.08 1000.09 1000.21 1000.18 1000.47 1000.90 1001.39
1011.81 1012.04 1012.07 1012.14 1012.16 1012.10 1011.98 1011.91 1011.90 1011.89 1011.76 1011.51 1011.17 1010.85 1010.46 1010.08 1009.50 1008.84 1008.26 1007.65 1007.09 1006.86 1006.32 1005.62 1005.04 1004.46 1003.86 1003.42 1003.13 1002.84 1002.24 1001.82 1001.52 1001.15 1000.80 1000.53 1000.31 999.43 999.25 999.50 999.36 999.79 1000.28 1001.07
1011.69 1011.91 1012.06 1012.08 1012.14 1012.15 1012.03 1011.89 1011.92 1011.92 1011.81 1011.66 1011.43 1011.02 1010.63 1010.26 1009.77 1009.07 1008.39 1007.69 1006.76 1005.96 1004.95 1004.85 1004.56 1004.24 1003.59 1003.08 1002.77 1002.22 1001.67 1001.35 1000.93 1000.57 1000.31 1000.03 999.70 998.98 998.62 998.39 998.64 998.97 999.56 1000.18
1011.75 1011.85 1012.00 1012.06 1012.05 1011.96 1011.81 1011.81 1011.69 1011.56 1011.40 1011.27 1011.08 1010.72 1010.26 1009.83 1009.28 1008.67 1008.22 1007.52 1006.59 1005.76 1004.89 1004.27 1003.88 1003.50 1003.10 1002.61 1002.26 1001.81 1001.25 1000.64 1000.25 999.60 999.46 998.94 998.56 998.20 997.98 997.69 997.84 998.35 998.78 999.14
1011.68 1011.88 1011.99 1011.97 1011.93 1011.76 1011.46 1011.26 1011.15 1010.88 1010.68 1010.52 1010.28 1009.88 1009.48 1009.05 1008.61 1008.08 1007.41 1006.63 1005.34 1005.17 1004.69 1003.99 1003.31 1002.61 1002.04 1001.56 1001.06 1000.66 1000.28 999.89 999.44 998.91 998.29 997.86 997.62 997.46 997.33 997.03 997.15 997.55 997.93 998.02
1011.74 1011.78 1011.70 1011.64 1011.56 1011.37 1011.06 1010.92 1010.77 1010.52 1010.18 1009.90 1009.66 1009.28 1008.74 1008.07 1007.58 1006.88 1006.44 1005.98 1004.76 1004.38 1003.97 1003.27 1002.60 1002.01 1001.52 1000.97 1000.30 999.66 999.15 998.82 998.43 997.97 997.49 996.93 996.70 996.40 996.40 996.41 996.37 996.56 996.72 997.03
1011.95 1011.94 1011.77 1011.61 1011.31 1010.94 1010.78 1010.70 1010.51 1010.23 1009.76 1009.37 1009.04 1008.62 1008.13 1007.57 1007.03 1006.29 1004.90 1004.31 1004.30 1003.67 1003.09 1002.22 1001.51 1000.97 1000.40 999.78 999.01 998.36 997.83 997.44 997.10 996.88 996.57 995.96 995.45 995.24 995.12 995.24 995.37 995.48 995.78 996.10
1011.89 1011.80 1011.61 1011.36 1011.20 1011.06 1010.79 1010.58 1010.32 1009.87 1009.27 1008.79 1008.39 1007.93 1007.54 1006.70 1005.98 1005.74 1005.10 1004.34 1003.60 1002.79 1002.11 1001.31 1000.48 999.78 999.04 998.36 997.61 996.89 996.26 995.77 995.44 995.17 994.91 994.81 994.51 994.14 994.02 994.05 994.20 994.60 995.06 995.57
1012.01 1011.81 1011.44 1011.40 1011.30 1010.93 1010.92 1010.66 1010.20 1009.57 1008.97 1008.36 1007.80 1007.38 1006.98 1006.51 1006.05 1004.94 1004.31 1003.41 1002.67 1002.12 1001.33 1000.56 999.84 999.04 998.26 997.32 996.51 995.82 995.16 994.59 994.11 993.83 993.61 993.49 993.38 993.12 993.13 993.08 993.16 993.47 994.07 994.51
1011.92 1011.79 1011.73 1011.77 1011.65 1011.35 1011.04 1010.72 1010.27 1009.74 1009.08 1008.29 1007.53 1006.85 1006.38 1005.85 1005.24 1004.61 1003.87 1003.10 1002.29 1001.42 1000.64 999.85 999.07 998.22 997.36 996.53 995.71 994.90 994.15 993.52 993.05 992.67 992.46 992.42 992.43 992.36 992.28 992.15 992.18 992.51 993.07 993.72
1012.16 1012.14 1012.05 1011.77 1011.67 1011.47 1011.18 1010.99 1010.48 1009.80 1009.23 1008.62 1007.74 1006.83 1006.00 1005.43 1004.82 1004.19 1003.38 1002.59 1001.80 1000.97 1000.16 999.37 998.52 997.64 996.75 995.86 994.87 993.95 993.15 992.45 991.87 991.42 991.18 991.10 991.25 991.43 991.49 991.55 991.71 991.97 992.51 993.21
Wind_Speed
11 16 19 23 20 18 13 18 11 20 18 20 16 17 17 17 16 14 11 10 14 14 12 13 14 12 10 8 5 5 9 13 17 17 17 18 19 19 18 18 17 18 17 17
16 19 16 21 23 23 16 13 12 14 19 15 19 11 12 12 13 11 10 8 9 12 13 14 16 14 12 10 9 5 6 11 12 13 15 18 17 17 17 17 17 17 17 18
15 14 14 13 7 6 7 8 9 8 12 18 20 15 13 14 13 5 7 9 10 10 12 12 13 13 13 13 9 7 6 8 11 12 15 16 16 16 17 17 14 16 16 16
9 8 6 7 14 8 9 8 7 10 15 19 20 14 11 11 11 8 6 6 10 9 12 13 13 13 12 13 13 9 9 6 7 12 13 14 15 16 15 13 14 12 14 16
4 5 11 11 4 5 15 7 12 14 18 18 20 9 12 11 7 8 4 5 7 8 10 13 16 15 14 15 15 13 11 8 7 7 12 13 15 15 13 11 12 13 13 15
3 4 4 2 7 16 8 9 16 13 17 16 19 11 12 19 16 8 3 3 7 8 8 12 13 15 16 15 16 17 15 9 7 7 7 12 13 13 12 11 12 10 12 14
8 6 7 5 14 15 4 8 14 13 13 16 11 7 13 15 17 15 9 5 1 4 9 11 13 13 14 15 16 16 15 13 11 10 9 10 8 8 11 12 9 10 10 7
6 6 7 3 8 9 11 14 14 10 10 17 11 10 11 14 16 16 17 18 14 4 4 8 11 12 12 11 12 14 15 13 12 11 8 7 7 2 8 10 10 8 8 6
5 4 11 15 12 12 9 14 15 11 8 13 11 10 11 10 11 14 15 14 15 15 12 10 3 8 8 11 9 11 14 14 11 10 9 8 5 5 4 4 7 6 6 6
7 3 12 16 16 6 10 16 10 5 3 12 11 12 12 12 11 11 11 13 12 13 13 13 13 10 7 7 11 8 10 13 12 10 9 6 4 4 1 3 4 4 5 6
11 16 15 9 9 13 13 7 6 7 7 9 10 11 13 13 13 12 13 13 12 12 11 12 12 11 10 11 9 10 8 7 8 7 5 5 4 5 3 2 3 3 3 5
8 9 10 16 16 15 14 9 4 7 9 9 9 10 10 12 12 12 13 13 13 13 14 14 13 12 12 13 13 9 10 6 5 5 5 3 3 4 9 5 3 3 9 7
16 10 14 15 12 7 5 6 8 7 6 9 9 9 10 10 10 14 13 13 13 15 14 14 14 13 13 13 14 13 10 9 6 5 5 3 2 1 1 4 7 4 7 7
12 5 3 4 3 6 7 7 8 6 5 8 9 9 9 9 11 12 12 13 13 14 14 14 15 14 13 13 14 14 12 6 6 4 4 4 6 4 3 2 2 1 4 3
3 1 3 4 4 4 5 7 8 7 8 10 8 9 10 12 12 13 14 13 13 12 10 11 13 14 12 11 12 12 11 9 8 7 5 4 4 5 3 5 3 2 3 4
2 2 1 3 6 8 7 9 9 10 11 9 10 11 11 12 13 13 13 13 13 13 14 13 13 13 12 12 13 11 10 10 9 8 8 7 5 4 3 3 4 3 4 5
2 2 5 6 8 9 11 10 9 10 10 11 12 12 13 14 14 14 14 13 12 15 14 13 13 12 10 12 11 8 8 9 9 9 8 7 7 6 5 6 5 6 6 6
2 2 3 4 6 8 9 9 8 8 10 11 12 11 10 10 12 13 13 14 14 14 12 13 11 12 14 14 13 10 9 9 9 9 8 8 9 8 7 7 7 7 6 6
1 2 3 5 6 6 8 9 8 7 7 7 9 11 11 11 11 10 11 13 15 16 14 13 13 13 15 14 12 10 10 12 11 9 9 9 9 10 9 9 8 8 8 8
1 3 4 5 6 6 7 6 7 8 7 7 8 11 12 12 12 12 12 14 14 12 15 16 16 15 15 15 14 9 10 10 12 11 9 9 9 9 10 11 10 9 9 9
2 0 4 4 6 7 6 4 6 8 8 7 8 11 11 13 11 10 11 11 14 11 13 15 12 11 10 12 13 11 10 11 11 11 11 10 8 9 11 11 10 9 9 9
3 3 4 4 5 7 6 5 7 8 7 7 7 9 11 14 14 14 12 11 11 15 13 12 12 14 12 17 12 12 11 11 12 10 11 10 11 9 9 10 10 9 10 10
4 4 4 5 6 6 4 5 6 8 9 9 9 10 11 10 10 11 14 11 11 15 12 12 16 19 20 14 13 12 13 13 12 11 11 10 10 10 8 8 8 8 9 9
5 5 4 6 5 4 7 7 8 10 9 10 10 10 9 10 10 8 9 15 18 16 14 14 17 21 21 12 11 11 11 11 11 11 11 14 10 11 10 9 9 8 9 10
5 5 5 5 6 6 7 8 8 8 9 9 10 9 10 8 8 11 11 12 16 15 13 18 19 21 13 12 11 11 11 10 10 10 10 10 10 11 10 10 9 9 9 9
4 4 4 4 5 5 6 6 7 8 9 9 9 8 8 7 9 9 10 13 13 14 12 11 11 12 11 12 12 12 11 10 10 9 11 10 10 10 9 9 9 9 9 9
3 3 4 4 3 5 6 7 7 8 8 9 10 10 9 8 9 11 14 10 11 12 12 11 11 12 11 12 12 11 10 10 11 9 8 9 9 9 8 8 7 8 9 9
Wind_Direction
265 271 288 279 285 287 276 268 255 284 298 309 322 321 323 314 331 336 5 24 46 43 31 26 18 7 0 347 342 283 240 213 211 207 209 209 212 211 211 208 209 205 203 204
280 284 273 291 286 284 276 321 266 279 293 341 306 291 311 336 326 322 349 17 42 47 35 32 26 10 2 347 334 318 269 245 230 215 211 213 211 211 209 208 204 203 201 201
275 290 304 291 231 329 286 343 316 305 328 332 341 334 335 330 332 359 343 356 28 39 36 28 31 14 7 3 340 330 295 262 244 227 216 214 212 208 210 207 201 201 200 198
270 295 243 250 316 299 310 323 337 331 336 338 339 348 342 338 346 328 24 28 21 33 31 31 22 16 13 15 5 354 0 338 253 240 230 217 210 208 208 201 198 197 198 197
227 232 296 299 35 5 324 319 22 350 327 328 340 339 6 359 8 335 325 359 24 39 40 30 24 14 16 16 11 9 0 354 348 312 236 219 210 206 203 190 197 202 201 197
178 240 255 285 343 329 303 254 9 347 332 324 335 2 349 333 326 335 338 335 13 29 57 38 24 20 15 8 6 4 354 346 349 353 327 216 207 197 196 191 195 193 199 196
226 253 278 295 344 324 312 342 338 337 329 333 338 348 334 358 9 17 8 342 328 22 47 71 45 17 15 4 1 344 345 4 358 4 7 346 216 185 188 190 181 180 175 169
206 211 254 66 336 12 320 311 305 322 325 324 339 0 24 5 0 9 11 21 16 338 55 58 60 53 2 352 341 338 335 4 5 4 3 5 352 5 157 156 154 145 131 94
247 256 291 312 291 315 304 308 314 294 334 326 351 2 342 359 360 358 2 0 1 10 23 19 18 61 34 333 319 330 329 347 354 3 2 4 346 2 15 85 138 137 144 133
303 237 293 300 307 287 322 321 339 34 328 308 338 348 339 340 352 352 358 351 352 356 4 5 3 357 360 357 325 305 321 325 334 3 344 8 10 3 14 62 84 108 122 115
274 279 285 275 302 319 322 331 349 351 345 342 344 347 342 339 342 342 345 350 350 352 349 346 345 343 345 349 1 339 311 305 315 329 354 355 40 355 355 335 141 148 127 145
269 292 292 297 295 293 293 292 333 338 336 342 347 344 339 333 334 335 340 344 346 347 341 336 335 336 338 343 337 336 323 342 308 298 316 348 345 359 20 27 117 103 145 146
272 293 297 301 315 1 334 350 337 336 340 335 341 341 339 330 331 329 336 341 344 340 332 331 331 335 340 339 332 331 330 329 340 305 280 282 266 228 284 356 39 73 137 148
278 315 254 43 341 336 341 334 330 327 343 340 334 337 337 334 328 329 332 332 328 323 325 329 326 324 332 332 331 325 315 306 322 331 290 270 267 227 162 192 177 321 51 108
207 329 284 319 314 327 319 322 334 337 345 343 341 337 337 332 330 328 325 326 326 321 321 322 317 312 318 316 318 316 311 310 312 310 306 277 252 264 230 169 202 177 125 68
327 302 93 336 340 339 336 340 342 347 337 333 331 334 328 322 318 316 318 324 321 319 317 313 306 305 311 316 320 315 309 295 295 297 296 298 275 229 223 222 174 190 196 155
297 298 340 345 348 342 339 337 344 333 327 329 327 324 321 322 317 318 320 319 312 308 301 298 296 299 298 304 304 298 293 291 278 280 280 277 264 243 219 206 197 201 199 183
135 278 314 330 335 337 335 333 334 327 325 322 319 317 310 316 311 311 314 316 310 306 297 298 302 304 305 303 299 292 294 288 281 280 274 266 259 249 234 229 215 196 184 177
92 343 333 333 321 324 324 323 319 316 309 312 307 303 301 290 294 294 300 301 301 308 306 312 307 302 304 299 293 290 292 292 281 270 262 256 255 250 240 225 227 211 185 170
314 314 338 316 321 308 309 313 298 303 298 305 298 301 300 301 306 304 306 293 287 288 299 304 309 305 302 296 295 286 282 277 281 268 264 254 250 248 244 231 217 214 193 185
188 332 289 316 318 309 284 282 298 303 303 294 305 307 304 307 301 297 300 303 299 298 297 297 298 296 293 293 296 287 276 272 269 272 253 255 248 242 247 237 221 206 199 192
235 225 250 262 279 292 289 305 310 303 302 301 301 313 308 311 314 309 297 279 295 305 307 302 303 295 291 291 285 278 271 263 264 261 261 243 246 239 239 240 224 206 198 193
291 288 279 277 285 273 277 297 303 297 297 300 296 300 316 309 308 310 308 316 306 306 302 298 299 297 294 295 288 279 270 264 252 247 248 250 237 235 229 229 226 206 197 193
315 310 295 304 315 301 307 313 308 297 289 291 288 286 292 307 306 297 293 296 301 307 302 297 300 301 304 296 287 278 273 267 259 250 242 242 240 239 237 230 222 213 203 197
309 288 306 349 326 311 313 309 303 297 300 299 295 291 282 287 291 304 303 303 305 303 300 303 303 307 301 299 291 282 277 269 261 250 240 232 242 235 233 227 212 198 196 194
308 317 324 322 301 313 315 321 311 309 313 311 307 305 295 298 302 300 301 305 299 304 303 304 306 307 304 299 291 285 280 270 261 249 235 227 226 233 233 225 206 185 179 178
335 340 325 318 335 327 322 318 310 312 315 310 301 304 300 303 310 308 315 313 308 316 313 310 313 311 307 306 300 293 286 277 272 261 240 223 213 216 222 205 186 172 164 166